map of GOT home
GOT - Airport
Location
City:  Göteborg, Västra Götalands län, Sweden
Near (Alt.):Gothenburg
Name:Landvetter
ICAO:ESGG
IATA:GOT

Details
Type:Airport (Aerodrome, Airfield)
Use:Public/Civil, International (customs port of entry)
Latitude:57°39'46"N (57.662836)
Longitude:12°16'47"E (12.279819)
Datum:WGS 1984
Elevation:506 ft (154 m)
Variation:3.73°E (WMM2015 magnetic declination)
0.16° annual change
Runways:1
Longest:10823 × 148 ft (3299 × 45 m), paved

Time
Time Zone:UTC+1 (DST+2)
Local Time:

Weather
METAR:ESGG 190850Z 11004KT CAVOK M05/M07 Q1000 R21/19//95
TAF:ESGG 190530Z 1906/2006 12005KT 9999 BKN040
TEMPO 1920/2006 BKN008

Related Locations
Nearby:
Farthest:CHT: 11402 mi / 18349 km
Waitangi [Tuuta], CIT, NZ

Find:

   beyond  
but within

Other Information
Maps:
NOTAMs:
Links:
Sources:

  
flag of Sweden   

Sectional Chart

Flight Planning
at skyvector.com

Satellite Image

Google Maps Satellite view

 

Copyright © 2004-2018 Karl L. Swartz. All rights reserved.
The Great Circle Mapper name and logo are trademarks of the Great Circle Mapper.
All other trademarks mentioned herein belong to their respective owners.
Please see credits for attibutions and further copyright information.

  Follow gcmap on Facebook Follow gcmap on Twitter Follow gcmap on Google+ GCmap on LinkedIn

hCard Microformat

Geo Microformat